This is the latest recevied weather packets stored in our database for station/object R1ZAAG-14. If no packets are shown the sender has not sent any weather packets the latest 10 day(s).
| Time | Temp. | Humidity | Pressure | Rain* | Wind** | Luminosity | Snow |
|---|---|---|---|---|---|---|---|
| 1777875967 | 2.78° C | 50% | 1002.4 hPa | - | - | - | - |
| 1777875067 | 2.78° C | 50% | 1002.5 hPa | - | - | - | - |
| 1777874166 | 2.78° C | 51% | 1002.5 hPa | - | - | - | - |
| 1777873266 | 2.22° C | 52% | 1002.5 hPa | - | - | - | - |
| 1777872366 | 2.22° C | 54% | 1002.6 hPa | - | - | - | - |
| 1777871465 | 1.67° C | 55% | 1002.6 hPa | - | - | - | - |
| 1777870564 | 1.67° C | 56% | 1002.4 hPa | - | - | - | - |
| 1777869661 | 1.67° C | 57% | 1002.4 hPa | - | - | - | - |
| 1777868776 | 1.11° C | 58% | 1002.5 hPa | - | - | - | - |
| 1777867875 | 1.11° C | 58% | 1002.5 hPa | - | - | - | - |
| 1777866974 | 1.11° C | 58% | 1002.4 hPa | - | - | - | - |
| 1777866074 | 0.56° C | 58% | 1002.4 hPa | - | - | - | - |
| 1777865172 | 0.56° C | 58% | 1002.5 hPa | - | - | - | - |
| 1777864271 | 0.56° C | 58% | 1002.4 hPa | - | - | - | - |
| 1777863371 | 0.56° C | 58% | 1002.4 hPa | - | - | - | - |
| 1777862471 | 0° C | 58% | 1002.3 hPa | - | - | - | - |
| 1777861571 | 0° C | 57% | 1002.3 hPa | - | - | - | - |
| 1777860669 | 0° C | 57% | 1002.3 hPa | - | - | - | - |
| 1777859768 | 0° C | 57% | 1002.3 hPa | - | - | - | - |
| 1777858868 | -0.56° C | 57% | 1002.3 hPa | - | - | - | - |
| 1777857967 | -0.56° C | 57% | 1002.2 hPa | - | - | - | - |
| 1777857066 | 0° C | 56% | 1002.3 hPa | - | - | - | - |
| 1777856165 | 0° C | 56% | 1002.2 hPa | - | - | - | - |
| 1777855265 | 0° C | 56% | 1002.3 hPa | - | - | - | - |
| 1777854362 | -0.56° C | 56% | 1002.3 hPa | - | - | - | - |
* Rain since midnight (hover to see other rain measurements)
** Current wind speed in m/s (hover to see current wind gust speed)